Elizabeth City, NC

9:55 PM EST on January 23, 2018 (GMT -0500)
Elizabeth City Cgas-Regional

Weather History for KECG - October, 2013

Change the Weather History Date:

Friday, October 11, 2013

  Actual Average Record
Temperature  
Mean Temperature 65 °F 64 °F  
Max Temperature 67 °F 74 °F 88 °F (1939)
Min Temperature 62 °F 54 °F 39 °F (2000)
Degree Days  
Heating Degree Days 0 3  
Month to date heating degree days 1 26  
Since 1 July heating degree days 16 38  
Cooling Degree Days 0 2  
Month to date cooling degree days 64 33  
Year to date cooling degree days 1635 1555  
Growing Degree Days 15 (Base 50)    
Moisture  
Dew Point 63 °F    
Average Humidity 94    
Maximum Humidity 100    
Minimum Humidity 87    
Precipitation  
Precipitation 0.07 in 0.10 in 3.56 in (2002)
Month to date precipitation 5.44 1.18  
Year to date precipitation 36.31 39.07  
Snow  
Snow 0.00 in - 0.00 in (2002)
Month to date snowfall 0.0  
Since 1 July snowfall 0.0  
Snow Depth 0.00 in    
Sea Level Pressure  
Sea Level Pressure 29.87 in    
Wind  
Wind Speed 9 mph (WNW)    
Max Wind Speed 15 mph    
Max Gust Speed 20 mph    
Visibility 6 miles    
Events Rain    
T = Trace of Precipitation, MM = Missing Value Source: NWS Daily Summary

Daily Weather History Graph

Daily Weather History Graph

Search for Another Location

Airport or City:

Trip Planner

Search our weather history database for the weather conditions in past years. The results will help you decide how hot, cold, wet, or windy it might be!

Date:

Astronomy

Oct. 11, 2013 Rise Set
Actual Time 7:08 AM EDT 6:33 PM EDT
Civil Twilight 6:42 AM EDT 6:59 PM EDT
Nautical Twilight 6:12 AM EDT 7:29 PM EDT
Astronomical Twilight 5:42 AM EDT 7:59 PM EDT
Moon 1:43 PM EDT (10/11) No Moon Set
Length of Visible Light 12h 16m
Length of Day
11h 25m
Waxing Crescent, 47% of the Moon is Illuminated
Oct 11
Waxing Crescent
Oct 11
First Quarter
Oct 18
Full
Oct 26
Last Quarter
Nov 3
New

Hourly Weather History & Observations

Time (EDT) Temp. Dew Point Humidity Pressure Visibility Wind Dir Wind Speed Gust Speed Precip Events Conditions
12:05 AM 68.0 °F 66.2 °F 94% 29.82 in 2.5 mi North 10.4 mph - 0.02 in Rain Light Rain
12:16 AM 68.0 °F 66.2 °F 94% 29.82 in 4.0 mi North 10.4 mph - 0.02 in Rain Light Rain
12:54 AM 66.9 °F 66.0 °F 97% 29.82 in 4.0 mi NNW 15.0 mph - 0.04 in Rain Light Rain
1:47 AM 66.2 °F 64.4 °F 94% 29.82 in 2.5 mi NNW 9.2 mph - 0.03 in Rain Light Rain
1:54 AM 66.0 °F 64.9 °F 96% 29.82 in 3.0 mi NNW 9.2 mph - 0.03 in Rain Light Rain
2:49 AM 64.4 °F 64.4 °F 100% 29.82 in 2.5 mi NNW 11.5 mph - 0.01 in Rain Light Rain
2:54 AM 64.9 °F 64.0 °F 97% 29.82 in 2.5 mi NNW 11.5 mph - 0.02 in Rain Light Rain
3:04 AM 64.4 °F 64.4 °F 100% 29.82 in 3.0 mi NNW 9.2 mph - 0.00 in Rain Light Rain
3:54 AM 64.0 °F 63.0 °F 96% 29.82 in 8.0 mi NW 6.9 mph - 0.01 in   Overcast
4:54 AM 63.0 °F 62.1 °F 97% 29.83 in 5.0 mi NW 9.2 mph - N/A   Overcast
5:54 AM 63.0 °F 62.1 °F 97% 29.84 in 4.0 mi NW 10.4 mph - N/A   Overcast
6:54 AM 62.1 °F 61.0 °F 96% 29.86 in 8.0 mi WNW 8.1 mph - N/A   Overcast
7:30 AM 62.6 °F 60.8 °F 94% 29.86 in 1.8 mi WNW 6.9 mph - N/A   Overcast
7:42 AM 62.6 °F 60.8 °F 94% 29.85 in 3.0 mi WNW 5.8 mph - N/A   Overcast
7:54 AM 62.1 °F 61.0 °F 96% 29.86 in 3.0 mi WNW 6.9 mph - N/A   Overcast
8:54 AM 62.1 °F 61.0 °F 96% 29.87 in 10.0 mi West 11.5 mph - N/A   Overcast
9:54 AM 62.1 °F 61.0 °F 96% 29.89 in 6.0 mi West 12.7 mph - N/A   Overcast
10:07 AM 62.6 °F 60.8 °F 94% 29.89 in 3.0 mi West 12.7 mph - N/A   Overcast
10:50 AM 62.6 °F 60.8 °F 94% 29.89 in 10.0 mi WNW 12.7 mph - N/A   Overcast
10:54 AM 63.0 °F 61.0 °F 93% 29.89 in 10.0 mi WNW 12.7 mph - N/A   Overcast
11:54 AM 64.0 °F 62.1 °F 93% 29.89 in 5.0 mi WNW 11.5 mph - 0.00 in   Overcast
12:54 PM 64.9 °F 63.0 °F 93% 29.88 in 10.0 mi WNW 9.2 mph - N/A   Overcast
1:54 PM 66.0 °F 63.0 °F 90% 29.87 in 10.0 mi WNW 10.4 mph - N/A   Overcast
2:54 PM 66.0 °F 63.0 °F 90% 29.86 in 10.0 mi West 10.4 mph - N/A   Overcast
3:54 PM 64.9 °F 62.1 °F 90% 29.87 in 10.0 mi WNW 11.5 mph - N/A   Overcast
4:54 PM 64.9 °F 62.1 °F 90% 29.88 in 10.0 mi West 10.4 mph - N/A   Overcast
5:54 PM 64.0 °F 62.1 °F 93% 29.88 in 10.0 mi WNW 9.2 mph - N/A   Overcast
6:06 PM 64.4 °F 62.6 °F 94% 29.88 in 10.0 mi WNW 9.2 mph - N/A   Overcast
6:54 PM 63.0 °F 61.0 °F 93% 29.89 in 9.0 mi West 10.4 mph - N/A   Overcast
7:16 PM 62.6 °F 62.6 °F 100% 29.90 in 2.0 mi WNW 8.1 mph - N/A   Overcast
7:43 PM 62.6 °F 62.6 °F 100% 29.90 in 3.0 mi West 9.2 mph - N/A   Overcast
7:54 PM 63.0 °F 62.1 °F 97% 29.91 in 2.5 mi West 6.9 mph - N/A   Overcast
8:12 PM 62.6 °F 62.6 °F 100% 29.91 in 4.0 mi West 6.9 mph - 0.01 in Rain Light Rain
8:54 PM 63.0 °F 62.1 °F 97% 29.91 in 8.0 mi West 6.9 mph - 0.01 in   Overcast
9:54 PM 63.0 °F 62.1 °F 97% 29.92 in 8.0 mi West 5.8 mph - N/A   Overcast
10:54 PM 63.0 °F 62.1 °F 97% 29.93 in 8.0 mi West 6.9 mph - N/A   Overcast
11:20 PM 62.6 °F 62.6 °F 100% 29.92 in 2.0 mi WNW 6.9 mph - N/A   Overcast
11:46 PM 62.6 °F 62.6 °F 100% 29.92 in 4.0 mi WNW 6.9 mph - N/A   Overcast
11:54 PM 63.0 °F 62.1 °F 97% 29.92 in 7.0 mi WNW 5.8 mph - N/A   Overcast